Theta_e
296 288 283 284 285 283 284 282 280 282 286 286 285 286 291 290 289 290 291 291 291 292 296 298 306 316 321 322 321 324 326 328 327 326 326 326 326 326 324 325 325 324 325 325
290 286 288 289 290 286 283 280 279 284 287 286 282 284 287 288 290 291 292 291 291 291 292 295 297 298 310 320 321 322 324 327 328 328 328 325 326 324 326 326 324 325 325 325
288 288 292 290 287 285 283 281 280 281 286 284 281 281 284 286 288 289 290 292 291 292 293 293 293 296 296 306 318 322 323 325 328 329 325 321 322 321 324 326 325 325 325 325
288 292 291 287 285 286 281 286 285 285 283 276 280 273 279 282 283 284 288 289 292 290 291 292 292 292 294 297 306 318 321 323 326 328 326 324 324 323 323 323 324 323 323 323
286 288 288 287 287 289 284 288 286 285 281 279 277 275 278 281 281 284 286 287 287 288 290 291 292 294 295 295 298 306 315 319 322 326 327 325 323 323 320 320 320 320 320 322
288 292 291 290 292 290 289 286 284 282 280 273 276 277 275 280 282 284 286 285 287 287 287 289 290 291 293 294 296 300 307 309 315 320 321 321 320 318 316 316 316 316 317 317
286 286 289 291 288 291 287 281 270 270 267 271 276 276 277 283 285 285 287 288 289 288 288 290 290 290 291 293 295 299 300 301 302 306 311 313 315 314 314 314 313 312 312 312
280 278 286 290 288 286 288 282 274 268 269 272 278 275 280 285 288 289 290 290 289 288 289 291 293 295 296 298 299 299 300 298 298 298 298 299 303 303 302 303 305 303 304 302
278 280 289 291 292 291 286 283 285 278 269 270 275 279 285 286 287 289 290 290 289 287 292 292 292 292 293 294 294 296 296 296 295 295 295 294 295 295 295 296 297 297 298 300
283 277 287 289 292 292 289 290 281 279 269 268 275 276 277 282 285 287 287 288 290 291 291 291 291 290 290 291 291 291 291 290 290 290 291 290 290 291 291 291 291 293 294 295
285 281 281 287 285 285 286 285 286 284 277 270 269 274 280 284 284 285 286 287 288 290 290 289 288 287 286 286 286 286 286 286 286 286 286 286 286 286 287 288 288 289 290 291
285 281 280 282 286 289 289 285 286 280 273 274 276 275 285 284 285 285 285 286 289 288 286 284 283 283 282 282 282 282 282 282 283 283 283 282 283 284 284 284 285 286 286 288
285 278 271 277 282 286 284 287 288 286 282 278 276 275 286 284 282 285 283 282 281 282 281 280 280 280 279 279 279 279 279 280 280 280 280 280 280 280 281 281 282 282 282 284
287 279 274 272 277 281 281 283 287 286 281 279 280 278 282 283 283 285 281 280 278 277 277 278 277 277 277 277 277 277 277 278 278 278 278 278 278 279 279 280 280 280 281 281
286 273 277 278 277 279 276 279 281 283 284 280 278 280 282 284 284 283 281 279 277 276 275 275 276 275 275 275 275 276 276 277 277 276 276 276 278 278 278 278 278 279 279 280
284 276 279 273 279 279 277 278 279 278 280 281 280 280 286 287 283 280 279 278 276 275 275 275 275 275 275 275 274 275 274 275 276 275 275 276 277 277 277 277 277 277 278 278
276 276 275 268 278 277 270 276 279 279 280 279 275 281 283 282 282 279 277 277 276 275 274 273 272 273 273 273 274 272 273 275 275 274 275 275 276 276 276 276 276 276 276 277
279 270 276 270 273 267 275 277 279 280 282 282 280 280 281 279 275 274 274 275 275 274 273 272 271 271 272 272 272 273 273 273 273 273 273 273 275 274 275 274 274 275 276 276
282 278 269 269 263 270 274 275 276 276 276 281 281 279 276 274 274 274 273 272 272 271 271 271 271 270 271 271 272 271 271 270 271 271 271 271 272 272 271 271 272 273 274 274
281 280 275 263 264 262 273 274 277 279 271 276 279 277 274 275 275 275 271 272 271 271 271 270 270 269 269 270 271 270 269 268 267 269 269 269 270 270 269 270 270 271 272 272
274 275 273 263 261 265 274 276 277 267 272 274 276 276 275 275 273 270 270 269 270 270 269 268 268 267 266 268 269 267 266 265 266 267 267 267 268 269 269 269 269 270 270 270
270 270 265 266 267 265 274 276 274 275 273 274 273 274 274 270 269 268 268 267 267 266 267 267 266 265 265 265 266 264 263 264 265 266 266 266 266 267 268 267 267 268 268 267
268 276 272 271 272 272 272 273 272 273 273 272 272 272 272 268 266 266 265 265 265 265 266 266 265 263 263 263 264 262 262 263 263 264 263 264 264 265 266 265 265 265 266 265
271 269 270 271 272 272 274 269 270 269 270 271 272 271 269 266 265 264 263 264 262 261 260 260 261 261 260 261 261 260 261 261 259 260 261 263 262 262 263 264 264 264 264 264
270 270 268 270 268 266 266 268 268 268 268 267 265 266 267 267 266 265 264 261 260 260 258 258 259 259 258 258 257 256 259 260 260 261 261 261 261 260 261 262 263 264 265 267
269 272 271 273 274 273 271 264 266 266 264 265 265 263 263 266 265 265 263 262 261 261 261 261 261 260 259 259 260 260 260 261 260 260 260 259 260 259 260 260 260 264 266 268
Wind_Speed
4 4 10 8 6 1 4 3 4 3 1 3 7 6 15 6 4 8 8 8 8 8 8 6 7 7 8 8 9 12 11 11 9 6 6 5 7 7 5 6 6 6 6 7
3 12 4 5 6 4 2 3 3 4 2 4 3 8 12 6 7 9 11 9 9 6 7 8 8 7 9 11 11 11 13 11 11 8 6 3 4 3 3 3 5 7 8 7
9 2 7 7 5 6 4 6 3 2 5 1 3 7 7 5 5 6 8 10 7 11 11 9 8 9 7 9 12 13 13 13 13 13 5 3 3 2 3 5 5 9 9 8
7 5 3 4 6 7 5 7 5 2 4 4 3 7 6 5 6 5 9 10 14 8 8 8 9 8 9 10 5 7 9 13 12 13 10 10 9 7 6 4 4 4 6 7
6 5 9 7 5 7 6 6 8 5 3 3 1 2 9 3 5 8 10 8 9 9 10 11 11 13 9 7 8 6 6 6 7 11 11 10 7 5 2 2 4 5 5 6
5 2 4 7 4 9 6 7 6 5 3 4 6 7 5 5 6 4 5 3 5 8 7 8 9 7 7 5 6 6 6 2 5 7 7 8 7 4 3 2 3 2 2 3
4 4 2 4 5 3 3 6 3 3 2 7 1 3 7 9 4 4 9 10 9 6 7 8 6 2 3 4 4 5 7 6 6 6 5 4 4 4 3 2 2 2 1 1
8 6 10 6 6 6 8 6 7 9 6 4 1 7 6 2 5 6 5 5 7 8 7 10 11 10 9 9 9 10 11 12 11 10 9 8 8 5 5 6 4 4 4 4
5 5 4 7 6 10 5 10 5 6 2 4 5 6 8 6 9 8 11 12 12 10 12 13 14 14 13 13 13 11 13 13 12 11 10 11 10 10 8 8 7 5 5 5
2 1 4 7 3 2 5 7 3 2 4 5 3 4 3 5 6 7 14 12 12 11 14 14 13 13 13 13 13 15 15 15 13 13 11 10 11 10 9 9 10 9 8 9
2 2 1 5 9 12 6 3 1 2 5 5 3 5 3 4 1 6 7 9 10 12 13 13 12 12 13 14 14 14 14 14 14 12 11 12 11 11 10 10 10 9 9 9
6 3 4 5 1 1 13 13 7 7 5 2 3 3 2 3 2 5 7 9 11 13 12 12 12 13 14 14 14 14 13 13 12 10 11 12 11 11 11 10 10 9 9 8
1 3 0 3 3 3 3 5 10 3 2 7 6 5 6 1 2 5 8 8 9 11 12 11 13 13 12 12 12 12 12 11 11 11 11 11 11 10 10 10 9 9 9 9
2 0 4 6 2 2 3 4 5 6 5 5 11 5 7 3 4 4 6 7 8 9 11 10 11 11 11 11 11 10 11 10 9 9 10 10 10 9 8 8 9 9 8 8
1 3 2 1 4 2 4 3 2 4 4 5 1 5 4 3 5 5 5 5 6 7 9 8 9 8 9 9 9 9 9 9 9 9 9 9 8 8 8 8 8 8 8 8
1 2 1 1 2 3 1 2 2 1 1 4 2 7 8 5 6 4 3 5 6 6 6 8 9 9 8 8 7 8 8 8 7 9 9 8 8 9 9 9 9 8 9 7
3 4 2 4 4 4 4 9 9 5 5 6 7 8 6 6 7 6 6 4 6 6 5 7 7 7 7 8 7 7 6 6 7 8 9 9 8 9 9 8 8 8 7 8
1 3 2 0 1 4 5 4 3 11 6 11 4 4 3 3 3 3 2 5 8 7 7 6 5 5 6 5 5 5 7 7 8 9 9 9 9 9 8 8 8 8 7 8
6 1 2 3 3 5 6 5 7 7 7 12 13 7 4 4 3 4 3 3 6 6 6 6 5 5 5 6 5 6 7 7 8 8 8 8 8 8 8 9 9 8 7 7
7 6 2 3 5 7 8 2 2 4 7 1 7 10 8 6 3 4 7 8 7 6 6 6 6 6 6 6 5 6 7 7 8 8 8 7 7 7 8 8 9 8 8 9
4 7 13 3 4 8 8 5 1 8 8 1 6 9 10 7 1 6 9 7 6 5 6 6 6 6 6 6 5 6 6 6 6 5 6 6 7 6 7 7 8 8 8 8
6 6 4 3 3 7 6 5 10 5 3 4 3 5 6 6 7 7 6 7 7 6 5 5 5 5 5 6 4 5 6 6 6 5 5 6 6 6 6 7 6 6 6 6
1 5 4 8 8 2 5 3 3 1 4 4 5 4 7 8 6 8 6 7 6 6 6 4 5 6 5 6 6 5 5 7 7 5 5 4 5 5 5 5 6 4 5 4
3 2 3 3 4 5 6 1 3 3 4 4 5 6 7 8 9 7 7 7 5 4 4 3 5 5 4 3 5 3 3 4 3 4 5 4 4 5 5 4 4 3 3 3
5 3 4 7 5 5 6 8 3 4 4 3 3 3 7 9 9 9 7 7 5 5 3 3 5 4 3 2 2 1 3 4 3 3 3 4 3 4 3 4 2 4 4 6
6 9 6 10 8 6 6 3 6 9 6 6 7 3 3 5 9 7 7 6 7 6 5 4 4 4 3 3 2 2 2 4 3 3 3 2 3 3 4 5 5 9 10 14
Wind_Direction
192 159 213 195 178 237 166 194 186 223 244 171 236 251 258 253 266 275 259 253 254 246 260 236 236 219 201 193 186 194 184 196 176 175 187 203 217 216 209 214 206 201 199 195
124 233 190 179 196 183 140 166 245 286 28 164 281 263 261 214 228 212 245 259 240 252 269 253 235 223 210 210 201 194 200 183 190 187 200 177 179 203 213 184 192 203 203 199
220 155 181 179 179 183 196 174 169 266 329 121 326 280 249 248 236 248 247 248 261 227 238 250 246 228 226 212 206 205 199 190 191 190 141 115 93 77 163 208 212 218 209 204
241 209 114 198 207 155 222 177 167 271 28 245 28 282 288 269 268 246 258 244 250 247 260 253 250 251 228 229 210 208 199 199 195 179 183 190 200 201 206 195 205 189 193 208
206 188 193 203 199 162 222 151 177 182 176 4 253 348 270 293 282 263 252 246 254 243 228 249 243 240 238 216 211 215 205 200 185 185 189 190 199 206 146 172 194 203 197 210
218 194 180 197 143 171 138 98 67 64 108 269 195 168 256 216 218 272 305 299 293 309 292 269 259 255 245 206 192 194 196 176 164 171 177 183 187 165 157 187 208 214 209 211
167 209 198 149 128 179 149 115 36 16 3 232 107 196 260 259 287 273 292 307 309 306 299 315 316 307 226 146 92 102 110 75 88 93 91 117 158 161 184 186 214 231 265 253
183 201 180 188 190 172 190 163 156 181 191 239 55 232 251 38 341 3 24 1 19 16 24 33 26 40 47 59 64 72 77 70 62 62 56 50 51 61 56 48 54 48 43 33
170 239 123 189 158 147 175 218 152 109 66 62 214 289 321 47 32 17 28 28 11 12 47 54 43 38 41 49 48 58 69 67 59 59 56 52 49 53 53 48 51 49 36 34
236 220 197 182 127 187 175 148 186 36 149 236 265 274 215 19 21 13 30 28 26 35 46 53 53 49 45 45 47 49 52 56 52 52 49 51 48 44 45 47 42 35 28 24
225 123 302 133 202 175 178 221 157 131 157 174 159 255 224 151 59 61 41 36 42 53 48 47 48 47 49 49 47 49 48 50 47 46 48 50 44 42 44 44 37 34 34 26
204 180 231 205 57 4 200 204 188 190 221 229 128 281 136 126 28 76 60 53 55 56 53 49 44 42 42 44 43 44 43 47 41 43 46 46 43 41 44 40 32 28 33 27
5 220 18 311 341 3 175 203 206 151 87 192 173 229 195 350 47 71 86 66 61 58 54 46 45 43 42 39 40 42 41 43 40 43 45 44 42 39 37 34 29 27 27 26
26 67 193 222 122 100 167 172 197 198 225 168 211 164 212 213 75 97 101 96 83 70 61 55 47 40 40 39 37 35 36 35 40 44 45 42 34 32 31 32 31 30 24 27
74 229 164 251 325 81 154 137 146 207 256 214 123 180 178 246 203 147 110 87 69 75 81 77 69 57 40 41 33 30 32 30 35 45 44 38 30 30 29 31 27 26 29 28
35 347 330 182 92 57 351 319 174 336 166 238 228 282 244 106 105 111 102 116 102 77 67 74 73 71 60 49 42 38 29 34 40 49 43 30 26 33 28 27 25 22 21 24
157 120 315 243 165 114 331 220 195 199 197 157 187 218 155 188 186 169 141 136 127 118 100 85 71 54 53 42 39 38 29 38 50 53 47 37 32 38 30 30 29 25 18 25
91 112 126 211 33 208 246 333 218 214 241 207 202 196 164 115 120 149 146 151 135 130 117 102 95 83 55 46 44 47 41 40 45 44 38 29 24 31 22 23 23 21 18 27
174 181 117 160 204 285 320 199 169 178 268 220 224 160 128 121 166 223 156 98 113 112 113 104 95 76 56 43 42 52 42 38 39 39 36 28 20 27 21 21 18 15 15 25
200 206 203 108 160 195 233 221 187 129 294 56 153 161 159 152 182 242 145 124 107 96 99 102 91 74 57 26 38 60 52 41 30 19 19 19 18 31 26 19 20 14 15 21
175 208 214 195 213 284 239 171 169 102 239 101 155 158 155 190 149 122 120 109 110 111 112 93 80 73 48 21 39 63 57 40 12 14 20 18 17 28 28 22 20 19 17 22
177 168 201 112 165 262 153 78 174 208 41 118 118 163 141 114 119 129 128 135 132 122 100 108 100 81 51 38 51 62 41 3 359 5 30 23 19 17 25 25 22 23 18 18
242 198 187 181 211 278 256 162 121 107 132 195 159 171 147 138 160 153 152 144 139 134 121 96 112 99 53 35 34 63 22 1 355 2 7 22 19 19 17 32 22 15 6 9
274 155 197 59 281 217 242 230 225 165 165 159 166 158 156 153 158 160 154 155 142 133 124 121 118 113 99 54 62 45 26 7 5 355 352 359 9 7 16 22 11 346 337 340
200 105 190 261 267 295 260 239 174 164 159 131 88 155 164 143 166 160 157 151 147 139 124 126 130 128 137 115 95 26 12 29 6 11 353 351 354 355 7 9 337 335 319 313
183 193 181 246 211 190 222 191 171 167 182 171 144 117 93 144 156 144 149 154 154 152 149 145 151 155 169 154 167 121 33 29 15 344 335 355 329 341 10 5 324 341 340 339